TIME,DELAY(SENSOR),PRES,OXYGEN,RAWTEMP,T(OPTODE),TCPHASE,FLUOR,BETA(BETA700),BETA(BETA412),BETA(BETA440),CDOM,C(CSC),ED(ED412.20),ED(ED444.00),ED(ED489.60),ED(ED554.30),LU(LU412.10),LU(LU443.90),LU(LU489.70),LU(LU554.70),COMP,TILTX,TILTY,CHECK
1340594652,5808,888.0200195312500000,37.8229293823242200,564.7642211914062000,4.3381500244140625,55.8913002014160160,56,99,101,79,84,15560,0,0,0,0,2147118262,2147774217,2147574308,2147572553,3267,3,13,25113
1340598248,5809,977.0300292968750000,40.2602386474609400,572.6921997070312000,4.0918688774108890,55.6076087951660160,55,101,100,79,83,15548,0,0,0,0,2147123291,2147773814,2147571757,2147573476,877,3,13,6397
1340601848,5810,997.1699829101562000,39.9097099304199200,573.8817749023438000,4.0548667907714840,55.6677894592285160,55,97,100,78,83,15546,0,0,0,0,2147122779,2147771593,2147572361,2147569069,30,3,13,22916
1340605448,5810,1004.0399780273438000,39.5134391784668000,573.7570800781250000,4.0587477684021000,55.7241287231445300,55,97,100,78,84,15553,0,0,0,0,2147123465,2147780973,2147572754,2147572114,1,3,13,4639
1340609048,5810,1014.6799926757812000,39.8599815368652340,574.0031127929688000,4.0510959625244140,55.6764183044433600,55,99,101,78,83,15549,0,0,0,0,2147123410,2147774400,2147575506,2147570496,256,3,13,37884
1340612648,5807,1019.6099853515625000,38.6291007995605500,572.8969726562500000,4.0854988098144530,55.8513488769531250,56,98,101,78,84,15548,0,0,0,0,2147124864,2147772123,2147572315,2147571309,632,3,13,56707
1340616248,5809,1015.0100097656250000,38.7145004272460940,573.9514770507812000,4.0526981353759770,55.8520698547363300,55,96,101,78,83,15547,0,0,0,0,2147124096,2147776009,2147573641,2147569901,3581,3,13,1448
1340619848,5809,1020.4799804687500000,38.9307098388671900,573.7758789062500000,4.0581631660461430,55.8154487609863300,55,98,101,78,84,15545,0,0,0,0,2147123958,2147777764,2147571264,2147573202,152,3,13,35021
1340623448,5810,1019.2399902343750000,38.7114181518554700,573.9953002929688000,4.0513358116149900,55.8542404174804700,55,97,101,78,83,15551,0,0,0,0,2147123538,2147775506,2147575113,2147571584,3282,2,13,33621
1340627048,5809,1016.3699951171875000,39.4636497497558600,574.7088012695312000,4.0291390419006350,55.7443695068359400,55,98,101,79,83,15543,0,0,0,0,2147124708,2147776978,2147579794,2147571876,111,3,13,17205
1340630648,5808,1006.6199951171875000,39.8971405029296900,575.4733886718750000,4.0053439140319820,55.6862106323242200,54,98,101,79,84,15544,0,0,0,0,2147123190,2147767817,2147574107,2147568923,498,3,13,56014
1340634248,5811,1011.3800048828125000,40.9039497375488300,576.3687744140625000,3.9774720668792725,55.5486793518066400,55,101,100,78,83,15548,0,0,0,0,2147125924,2147777773,2147578139,2147570249,241,3,13,47772
1340637848,5814,1015.8499755859375000,40.9597587585449200,576.2935180664062000,3.9798159599304200,55.5388298034668000,56,97,102,77,83,15548,0,0,0,0,2147123538,2147771986,2147568749,2147570770,43,3,13,58408
1340641448,5812,1014.8300170898438000,40.9565811157226560,576.2006835937500000,3.9827060699462890,55.5377311706543000,55,97,102,78,83,15548,0,0,0,0,2147122386,2147778066,2147575478,2147572196,164,3,13,38709
1340645048,5809,1016.7800292968750000,41.0645294189453100,575.7996826171875000,3.9951899051666260,55.5214195251464840,55,102,102,78,83,15545,0,0,0,0,2147118445,2147774564,2147576960,2147570816,256,3,13,27584
1340648648,5810,1013.8800048828125000,40.0935516357421900,575.8001098632812000,3.9951760768890380,55.6610603332519500,55,100,101,78,85,15546,0,0,0,0,2147126811,2147777289,2147573632,2147573092,3362,3,13,38584
1340652248,5811,1020.4099731445312000,40.9439392089843750,575.7457885742188000,3.9968659877777100,55.5382804870605500,55,97,100,78,84,15548,0,0,0,0,2147123629,2147777152,2147572736,2147571044,3437,3,13,6659
1340655848,5810,1020.6099853515625000,40.6243286132812500,575.6223754882812000,4.0007081031799320,55.5853004455566400,56,99,102,78,83,15542,0,0,0,0,2147121865,2147774500,2147566930,2147572644,85,3,13,45374
1340659448,5808,1023.7100219726562000,40.6701507568359400,575.7374877929688000,3.9971239566802980,55.5763816833496100,56,98,101,78,84,15539,0,0,0,0,2147121974,2147780946,2147572397,2147575360,3456,3,13,13747
1340663048,5810,1018.8200073242188000,40.5462799072265600,575.5822143554688000,4.0019569396972660,55.5936203002929700,55,98,100,79,82,15538,0,0,0,0,2147124214,2147773156,2147572937,2147571364,84,3,13,60505
1340666648,5809,1019.8499755859375000,40.0649490356445300,575.4519042968750000,4.0060138702392580,55.6635398864746100,54,97,101,79,84,15542,0,0,0,0,2147121709,2147779620,2147574290,2147567707,3110,3,13,573
1340670248,5807,1019.1799926757812000,40.3446884155273440,576.0051879882812000,3.9887909889221190,55.6277198791503900,54,103,101,79,85,15541,0,0,0,0,2147124992,2147776566,2147576155,2147572626,436,3,13,28690
1340673848,5809,1013.6900024414062000,40.9719810485839840,576.5897216796875000,3.9705960750579834,55.5439491271972660,54,102,101,79,84,15545,0,0,0,0,2147122761,2147770925,2147572553,2147571072,41,3,13,31918
1340677448,5809,1019.7199707031250000,40.4792900085449200,576.2095947265625000,3.9824309349060060,55.6083106994628900,55,99,101,79,82,15534,0,0,0,0,2147123346,2147774957,2147575451,2147571355,135,3,13,24852
1340681048,5812,1017.9799804687500000,40.4321708679199200,576.7667846679688000,3.9650819301605225,55.6251296997070300,55,97,101,78,85,15538,0,0,0,0,2147122852,2147775396,2147575314,2147571721,47,3,13,28522
1340684648,5814,1016.8900146484375000,40.3773384094238300,576.9169921875000000,3.9604070186614990,55.6363716125488300,55,97,102,79,83,15537,0,0,0,0,2147126518,2147778907,2147570560,2147570742,79,3,13,14534
1340688248,5810,1023.7999877929688000,40.5363082885742200,575.8626708984375000,3.9932270050048830,55.5990905761718750,55,97,102,78,82,15535,0,0,0,0,2147122742,2147779949,2147578084,2147572388,135,3,13,28234
1340691848,5812,1025.7299804687500000,40.3535003662109400,574.6373291015625000,4.0313611030578610,55.6113395690918000,56,98,101,77,83,15537,0,0,0,0,2147124251,2147773174,2147577051,2147572928,3530,3,13,25409
1340695448,5808,1026.9000244140625000,39.2635383605957000,574.5756225585938000,4.0332832336425780,55.7772216796875000,55,98,100,79,83,15537,0,0,0,0,2147125622,2147776868,2147573312,2147572964,3553,3,13,51722
1340699048,5812,1028.0699462890625000,38.7054100036621100,574.5161132812500000,4.0351347923278810,55.8596916198730500,54,100,100,78,83,15533,0,0,0,0,2147125019,2147781010,2147571081,2147574610,3523,3,13,52363
1340702648,5811,1026.9399414062500000,39.0490493774414060,574.9309082031250000,4.0222258567810060,55.8127899169921900,56,97,100,78,85,15535,0,0,0,0,2147124150,2147776740,2147575570,2147571209,34,3,13,26981
1340706248,5808,1021.4400024414062000,40.0971298217773440,575.8901977539062000,3.9923729896545410,55.6663093566894500,55,98,101,77,83,15534,0,0,0,0,2147123346,2147776173,2147571282,2147569115,426,3,13,16132
1340709848,5810,1020.9400024414062000,41.3810691833496100,576.8953247070312000,3.9610838890075684,55.4877395629882800,56,100,101,78,83,15535,0,0,0,0,2147125101,2147771382,2147576073,2147571529,3208,3,13,48465
1340713448,5811,1026.4599609375000000,41.2817993164062500,576.7232055664062000,3.9664421081542970,55.4957695007324200,55,102,101,78,84,15519,0,0,0,0,2147122496,2147775241,2147576475,2147573549,3512,3,13,22757
1340717048,5812,1030.7800292968750000,40.5169181823730500,575.8660278320312000,3.9931259155273438,55.5998191833496100,54,100,102,78,82,15520,0,0,0,0,2147123510,2147777097,2147574427,2147572187,277,3,13,60369
1340720648,5807,1029.6899414062500000,40.5896301269531250,574.9053955078125000,4.0230221748352050,55.5833396911621100,55,97,100,78,84,15517,0,0,0,0,2147124452,2147777846,2147577874,2147570240,244,3,13,24059
1340724248,5810,1029.0899658203125000,39.8068809509277340,575.9564819335938000,3.9903090000152590,55.7091903686523440,54,98,101,78,83,15518,0,0,0,0,2147123428,2147775981,2147570806,2147571629,390,3,13,38757
1340727848,5810,1018.2800292968750000,40.1540298461914060,576.7037963867188000,3.9670450687408447,55.6637992858886700,55,99,100,78,85,15520,0,0,0,0,2147124324,2147778285,2147575707,2147572123,217,3,13,21186
1340731448,5812,1025.5300292968750000,40.4252090454101560,577.2877807617188000,3.9488620758056640,55.6319503784179700,55,98,103,78,83,15516,0,0,0,0,2147122029,2147773376,2147575369,2147571044,3511,3,13,13351
1340735048,5809,1027.2099609375000000,40.1220588684082000,575.9619140625000000,3.9901430606842040,55.6638298034668000,55,98,101,78,82,15517,0,0,0,0,2147123776,2147776822,2147575104,2147571538,377,3,13,4560
1340738648,5808,1029.2099609375000000,40.5005493164062500,575.8598022460938000,3.9933190345764160,55.6077003479003900,55,98,101,78,83,15516,0,0,0,0,2147124516,2147775890,2147577325,2147571437,324,3,13,857
1340738756,5808,1028.1199951171875000,40.4023895263671900,575.7637939453125000,3.9963049888610840,55.6155395507812500,55,98,101,77,84,15516,0,0,0,0,2147126582,2147771894,2147574180,2147570349,272,3,13,53703
